Time,TemperatureF,DewpointF,PressureIn,WindDirection,WindDirectionDegrees,WindSpeedMPH,WindSpeedGustMPH,Humidity,HourlyPrecipIn,Conditions,Clouds,dailyrainin,SolarRadiationWatts/m^2,SoftwareType,DateUTC
2013-01-25 00:01:00,43.0,43.0,-100.00,South,177,8.0,10.0,99,0.00,,,0.10,0.000000,,2013-01-25 08:01:00,
2013-01-25 00:32:00,44.0,44.0,-100.00,South,179,5.0,9.0,99,0.00,,,0.10,0.000000,,2013-01-25 08:32:00,
2013-01-25 00:42:00,44.0,44.0,-100.00,South,179,5.0,9.0,99,0.00,,,0.10,0.000000,,2013-01-25 08:42:00,
2013-01-25 00:52:00,44.0,44.0,-100.00,South,179,5.0,9.0,99,0.00,,,0.10,0.000000,,2013-01-25 08:52:00,
2013-01-25 01:01:00,44.0,44.0,-100.00,South,179,5.0,9.0,99,0.00,,,0.10,0.000000,,2013-01-25 09:01:00,
2013-01-25 01:32:00,45.0,45.0,-100.00,South,175,6.0,10.0,99,0.00,,,0.10,0.000000,,2013-01-25 09:32:00,
2013-01-25 01:42:00,45.0,45.0,-100.00,South,175,6.0,10.0,99,0.00,,,0.10,0.000000,,2013-01-25 09:42:00,
2013-01-25 01:52:00,45.0,45.0,-100.00,South,175,6.0,10.0,99,0.00,,,0.10,0.000000,,2013-01-25 09:52:00,
2013-01-25 02:01:00,45.0,45.0,-100.00,South,175,6.0,10.0,99,0.00,,,0.10,0.000000,,2013-01-25 10:01:00,
2013-01-25 02:32:00,44.0,44.0,-100.00,South,175,5.0,7.0,99,0.00,,,0.10,0.000000,,2013-01-25 10:32:00,
2013-01-25 02:42:00,44.0,44.0,-100.00,South,175,5.0,7.0,99,0.00,,,0.10,0.000000,,2013-01-25 10:42:00,
2013-01-25 02:52:00,44.0,44.0,-100.00,South,175,5.0,7.0,99,0.00,,,0.10,0.000000,,2013-01-25 10:52:00,
2013-01-25 03:02:00,44.0,44.0,-100.00,South,175,5.0,7.0,99,0.00,,,0.10,0.000000,,2013-01-25 11:02:00,
2013-01-25 03:33:00,46.0,46.0,-100.00,NW,314,2.0,7.0,99,0.00,,,0.10,0.000000,,2013-01-25 11:33:00,
2013-01-25 03:42:00,46.0,46.0,-100.00,NW,314,2.0,7.0,99,0.00,,,0.10,0.000000,,2013-01-25 11:42:00,
2013-01-25 03:52:00,46.0,46.0,-100.00,NW,314,2.0,7.0,99,0.00,,,0.10,0.000000,,2013-01-25 11:52:00,
2013-01-25 04:02:00,46.0,46.0,-100.00,NW,314,2.0,7.0,99,0.00,,,0.10,0.000000,,2013-01-25 12:02:00,
2013-01-25 04:32:00,45.0,45.0,-100.00,NNW,341,1.0,2.0,99,0.02,,,0.12,0.000000,,2013-01-25 12:32:00,
2013-01-25 04:42:00,45.0,45.0,-100.00,NNW,341,1.0,2.0,99,0.02,,,0.12,0.000000,,2013-01-25 12:42:00,
2013-01-25 04:53:00,45.0,45.0,-100.00,NNW,341,1.0,2.0,99,0.02,,,0.12,0.000000,,2013-01-25 12:53:00,
2013-01-25 05:02:00,45.0,45.0,-100.00,NNW,341,1.0,2.0,99,0.02,,,0.12,0.000000,,2013-01-25 13:02:00,
2013-01-25 05:33:00,45.0,45.0,-100.00,WSW,250,1.0,4.0,99,0.04,,,0.16,0.000000,,2013-01-25 13:33:00,
2013-01-25 05:43:00,45.0,45.0,-100.00,WSW,250,1.0,4.0,99,0.04,,,0.16,0.000000,,2013-01-25 13:43:00,
2013-01-25 05:52:00,45.0,45.0,-100.00,WSW,250,1.0,4.0,99,0.04,,,0.16,0.000000,,2013-01-25 13:52:00,
2013-01-25 06:02:00,45.0,45.0,-100.00,WSW,250,1.0,4.0,99,0.04,,,0.16,0.000000,,2013-01-25 14:02:00,
2013-01-25 06:33:00,45.0,45.0,-100.00,South,178,6.0,7.0,99,0.00,,,0.16,0.000000,,2013-01-25 14:33:00,
2013-01-25 06:42:00,45.0,45.0,-100.00,South,178,6.0,7.0,99,0.00,,,0.16,0.000000,,2013-01-25 14:42:00,
2013-01-25 06:53:00,45.0,45.0,-100.00,South,178,6.0,7.0,99,0.00,,,0.16,0.000000,,2013-01-25 14:53:00,
2013-01-25 07:02:00,45.0,45.0,-100.00,South,178,6.0,7.0,99,0.00,,,0.16,0.000000,,2013-01-25 15:02:00,
2013-01-25 07:33:00,45.0,45.0,-100.00,South,179,3.0,8.0,99,0.00,,,0.15,0.000000,,2013-01-25 15:33:00,
2013-01-25 07:42:00,45.0,45.0,-100.00,South,179,3.0,8.0,99,0.00,,,0.15,0.000000,,2013-01-25 15:42:00,
2013-01-25 07:53:00,45.0,45.0,-100.00,South,179,3.0,8.0,99,0.00,,,0.15,0.000000,,2013-01-25 15:53:00,
2013-01-25 08:02:00,45.0,45.0,-100.00,South,179,3.0,8.0,99,0.00,,,0.15,0.000000,,2013-01-25 16:02:00,
2013-01-25 08:33:00,45.0,45.0,-100.00,North,351,2.0,4.0,99,0.05,,,0.20,0.000000,,2013-01-25 16:33:00,
2013-01-25 08:43:00,45.0,45.0,-100.00,North,351,2.0,4.0,99,0.05,,,0.20,0.000000,,2013-01-25 16:43:00,
2013-01-25 08:53:00,45.0,45.0,-100.00,North,351,2.0,4.0,99,0.05,,,0.20,0.000000,,2013-01-25 16:53:00,
2013-01-25 09:02:00,45.0,45.0,-100.00,North,351,2.0,4.0,99,0.05,,,0.20,0.000000,,2013-01-25 17:02:00,
2013-01-25 09:33:00,46.0,46.0,-100.00,WNW,297,5.0,14.0,99,0.07,,,0.26,12.000000,,2013-01-25 17:33:00,
2013-01-25 09:43:00,46.0,46.0,-100.00,WNW,297,5.0,14.0,99,0.07,,,0.26,12.000000,,2013-01-25 17:43:00,
2013-01-25 09:53:00,46.0,46.0,-100.00,WNW,297,5.0,14.0,99,0.07,,,0.26,12.000000,,2013-01-25 17:53:00,
2013-01-25 10:02:00,46.0,46.0,-100.00,WNW,297,5.0,14.0,99,0.07,,,0.26,12.000000,,2013-01-25 18:02:00,
2013-01-25 10:33:00,47.0,47.0,-100.00,SW,236,5.0,14.0,99,0.04,,,0.30,44.000000,,2013-01-25 18:33:00,
2013-01-25 10:43:00,47.0,47.0,-100.00,SW,236,5.0,14.0,99,0.04,,,0.30,44.000000,,2013-01-25 18:43:00,
2013-01-25 10:52:00,47.0,47.0,-100.00,SW,236,5.0,14.0,99,0.04,,,0.30,44.000000,,2013-01-25 18:52:00,
2013-01-25 11:02:00,47.0,47.0,-100.00,SW,236,5.0,14.0,99,0.04,,,0.30,44.000000,,2013-01-25 19:02:00,
2013-01-25 11:33:00,47.0,47.0,-100.00,WSW,240,2.0,13.0,99,0.06,,,0.36,49.000000,,2013-01-25 19:33:00,
2013-01-25 11:42:00,47.0,47.0,-100.00,WSW,240,2.0,13.0,99,0.06,,,0.36,49.000000,,2013-01-25 19:42:00,
2013-01-25 11:53:00,47.0,47.0,-100.00,WSW,240,2.0,13.0,99,0.06,,,0.36,49.000000,,2013-01-25 19:53:00,
2013-01-25 12:02:00,47.0,47.0,-100.00,WSW,240,2.0,13.0,99,0.06,,,0.36,49.000000,,2013-01-25 20:02:00,
2013-01-25 12:33:00,47.0,47.0,-100.00,West,264,4.0,11.0,99,0.06,,,0.42,65.000000,,2013-01-25 20:33:00,
2013-01-25 12:43:00,47.0,47.0,-100.00,West,264,4.0,11.0,99,0.06,,,0.42,65.000000,,2013-01-25 20:43:00,
2013-01-25 12:52:00,47.0,47.0,-100.00,West,264,4.0,11.0,99,0.06,,,0.42,65.000000,,2013-01-25 20:52:00,
2013-01-25 13:02:00,47.0,47.0,-100.00,West,264,4.0,11.0,99,0.06,,,0.42,65.000000,,2013-01-25 21:02:00,
2013-01-25 13:33:00,47.0,47.0,-100.00,West,275,5.0,13.0,99,0.05,,,0.47,96.000000,,2013-01-25 21:33:00,
2013-01-25 13:42:00,47.0,47.0,-100.00,West,275,5.0,13.0,99,0.05,,,0.47,96.000000,,2013-01-25 21:42:00,
2013-01-25 13:52:00,47.0,47.0,-100.00,West,275,5.0,13.0,99,0.05,,,0.47,96.000000,,2013-01-25 21:52:00,
2013-01-25 14:02:00,47.0,47.0,-100.00,West,275,5.0,13.0,99,0.05,,,0.47,96.000000,,2013-01-25 22:02:00,
2013-01-25 14:33:00,48.0,48.0,-100.00,NW,305,4.0,17.0,99,0.03,,,0.50,121.000000,,2013-01-25 22:33:00,
2013-01-25 14:42:00,48.0,48.0,-100.00,NW,305,4.0,17.0,99,0.03,,,0.50,121.000000,,2013-01-25 22:42:00,
2013-01-25 14:52:00,48.0,48.0,-100.00,NW,305,4.0,17.0,99,0.03,,,0.50,121.000000,,2013-01-25 22:52:00,
2013-01-25 15:02:00,48.0,48.0,-100.00,NW,305,4.0,17.0,99,0.03,,,0.50,121.000000,,2013-01-25 23:02:00,
2013-01-25 15:32:00,47.0,47.0,-100.00,NNW,331,3.0,17.0,99,0.01,,,0.51,90.000000,,2013-01-25 23:32:00,
2013-01-25 15:42:00,47.0,47.0,-100.00,NNW,331,3.0,17.0,99,0.01,,,0.51,90.000000,,2013-01-25 23:42:00,
2013-01-25 15:52:00,47.0,47.0,-100.00,NNW,331,3.0,17.0,99,0.01,,,0.51,90.000000,,2013-01-25 23:52:00,
2013-01-25 16:01:00,47.0,47.0,-100.00,NNW,331,3.0,17.0,99,0.01,,,0.51,90.000000,,2013-01-26 00:01:00,
2013-01-25 16:33:00,46.0,46.0,-100.00,NNW,327,4.0,17.0,99,0.02,,,0.53,53.000000,,2013-01-26 00:33:00,
2013-01-25 16:42:00,46.0,46.0,-100.00,NNW,327,4.0,17.0,99,0.02,,,0.53,53.000000,,2013-01-26 00:42:00,
2013-01-25 16:53:00,46.0,46.0,-100.00,NNW,327,4.0,17.0,99,0.02,,,0.53,53.000000,,2013-01-26 00:53:00,
2013-01-25 17:01:00,46.0,46.0,-100.00,NNW,327,4.0,17.0,99,0.02,,,0.53,53.000000,,2013-01-26 01:01:00,
2013-01-25 17:32:00,45.0,45.0,-100.00,NW,305,4.0,13.0,99,0.02,,,0.55,13.000000,,2013-01-26 01:32:00,
2013-01-25 17:42:00,45.0,45.0,-100.00,NW,305,4.0,13.0,99,0.02,,,0.55,13.000000,,2013-01-26 01:42:00,
2013-01-25 17:52:00,45.0,45.0,-100.00,NW,305,4.0,13.0,99,0.02,,,0.55,13.000000,,2013-01-26 01:52:00,
2013-01-25 18:01:00,45.0,45.0,-100.00,NW,305,4.0,13.0,99,0.02,,,0.55,13.000000,,2013-01-26 02:01:00,
2013-01-25 18:32:00,43.0,43.0,-100.00,SW,220,4.0,12.0,99,0.00,,,0.55,1.000000,,2013-01-26 02:32:00,
2013-01-25 18:42:00,43.0,43.0,-100.00,SW,220,4.0,12.0,99,0.00,,,0.55,1.000000,,2013-01-26 02:42:00,
2013-01-25 18:52:00,43.0,43.0,-100.00,SW,220,4.0,12.0,99,0.00,,,0.55,1.000000,,2013-01-26 02:52:00,
2013-01-25 19:01:00,43.0,43.0,-100.00,SW,220,4.0,12.0,99,0.00,,,0.55,1.000000,,2013-01-26 03:01:00,
2013-01-25 19:32:00,42.0,42.0,-100.00,South,186,2.0,6.0,99,0.00,,,0.55,0.000000,,2013-01-26 03:32:00,
2013-01-25 19:43:00,42.0,42.0,-100.00,South,186,2.0,6.0,99,0.00,,,0.55,0.000000,,2013-01-26 03:43:00,
2013-01-25 19:52:00,42.0,42.0,-100.00,South,186,2.0,6.0,99,0.00,,,0.55,0.000000,,2013-01-26 03:52:00,
2013-01-25 20:01:00,42.0,42.0,-100.00,South,186,2.0,6.0,99,0.00,,,0.55,0.000000,,2013-01-26 04:01:00,
2013-01-25 20:32:00,41.0,41.0,-100.00,SW,225,3.0,7.0,99,0.01,,,0.55,0.000000,,2013-01-26 04:32:00,
2013-01-25 20:42:00,41.0,41.0,-100.00,SW,225,3.0,7.0,99,0.01,,,0.55,0.000000,,2013-01-26 04:42:00,
2013-01-25 20:52:00,41.0,41.0,-100.00,SW,225,3.0,7.0,99,0.01,,,0.55,0.000000,,2013-01-26 04:52:00,
2013-01-25 21:02:00,41.0,41.0,-100.00,SW,225,3.0,7.0,99,0.01,,,0.55,0.000000,,2013-01-26 05:02:00,
2013-01-25 21:33:00,40.0,40.0,-100.00,South,171,6.0,7.0,99,0.00,,,0.51,0.000000,,2013-01-26 05:33:00,
2013-01-25 21:42:00,40.0,40.0,-100.00,South,171,6.0,7.0,99,0.00,,,0.51,0.000000,,2013-01-26 05:42:00,
2013-01-25 21:52:00,40.0,40.0,-100.00,South,171,6.0,7.0,99,0.00,,,0.51,0.000000,,2013-01-26 05:52:00,
2013-01-25 22:02:00,40.0,40.0,-100.00,South,171,6.0,7.0,99,0.00,,,0.51,0.000000,,2013-01-26 06:02:00,
2013-01-25 22:32:00,39.0,39.0,-100.00,South,177,3.0,8.0,99,0.00,,,0.48,0.000000,,2013-01-26 06:32:00,
2013-01-25 22:42:00,39.0,39.0,-100.00,South,177,3.0,8.0,99,0.00,,,0.48,0.000000,,2013-01-26 06:42:00,
2013-01-25 22:52:00,39.0,39.0,-100.00,South,177,3.0,8.0,99,0.00,,,0.48,0.000000,,2013-01-26 06:52:00,
2013-01-25 23:01:00,39.0,39.0,-100.00,South,177,3.0,8.0,99,0.00,,,0.48,0.000000,,2013-01-26 07:01:00,
2013-01-25 23:33:00,40.0,40.0,-100.00,South,177,5.0,7.0,99,0.00,,,0.48,0.000000,,2013-01-26 07:33:00,
2013-01-25 23:42:00,40.0,40.0,-100.00,South,177,5.0,7.0,99,0.00,,,0.48,0.000000,,2013-01-26 07:42:00,
2013-01-25 23:51:00,40.0,40.0,-100.00,South,177,5.0,7.0,99,0.00,,,0.48,0.000000,,2013-01-26 07:51:00,